Home > Weather > Oldham > Past weeks

Flag for United Kingdom Weather for the Past 2 Weeks in Oldham, England, United Kingdom

Now
66 °F

Mild.


Feels Like: 66 °F
Forecast: 50 / 68 °F
Wind: 10 mph from East

Location: Manchester Airport

Current Time: May 6, 2016 at 12:34:07 PM

Latest Report: May 6, 2016 at 12:20 PM


Visibility: N/A

Pressure: 29.86 "Hg

Humidity: 32%

Dew Point: 36 °F

Location of OldhamLocation

Historic Weather in Oldham — Graph

°F

Oldham Temperature Yesterday

Maximum temperature yesterday: 68 °F (at 2:50 PM)
Minimum temperature yesterday: 45 °F (at 5:20 AM)
Average temperature yesterday: 56 °F

High & Low Weather Summary for the Past Weeks

 TemperatureHumidityPressure
High68 °F (May 5, 2:50 PM)94% (May 2, 3:50 AM)30.33 "Hg (May 2, 3:50 AM)
Low30 °F (Apr 27, 2:50 AM)34% (Apr 21, 11:50 AM)29.65 "Hg (Apr 29, 3:20 AM)
Average46 °F71%30.05 "Hg
* Reported Apr 21 11:20 AM — May 6 11:20 AM, Oldham, Weather by CustomWeather, © 2016

Note: Actual official high and low records may vary slightly from our data, if they occured in-between our weather recording intervals... More about our weather records

Advertising

Oldham Weather History for the Previous 24 Hours

Scroll right to see more
 ConditionsComfort  
Time TempWeatherWind HumidityBarometerVisibility
11:20 AM
Fri, May 6
64 °FPassing clouds.5 mph40%29.89 "HgN/A
10:50 AM63 °FMild.3 mph39%29.89 "HgN/A
10:20 AM63 °FSunny.3 mph39%29.89 "Hg10 mi
9:50 AM61 °FSunny.3 mph42%29.92 "Hg10 mi
9:20 AM59 °FSunny.3 mph48%29.92 "Hg10 mi
8:50 AM55 °FSunny.3 mph59%29.92 "Hg10 mi
8:20 AM54 °FSunny.3 mph58%29.92 "Hg10 mi
7:50 AM52 °FSunny.No wind67%29.92 "Hg10 mi
7:20 AM50 °FSunny.3 mph71%29.92 "Hg10 mi
6:50 AM46 °FSunny.2 mph76%29.92 "Hg10 mi
6:20 AM46 °FClear.5 mph66%29.92 "Hg10 mi
5:50 AM46 °FClear.3 mph66%29.95 "Hg10 mi
5:20 AM46 °FClear.2 mph66%29.95 "Hg10 mi
4:50 AM46 °FClear.3 mph66%29.95 "Hg10 mi
4:20 AM48 °FClear.2 mph58%29.95 "Hg10 mi
3:50 AM50 °FClear.2 mph54%29.95 "Hg10 mi
3:20 AM52 °FClear.7 mph50%29.98 "Hg10 mi
2:50 AM52 °FClear.6 mph54%29.98 "Hg10 mi
2:20 AM52 °FClear.6 mph58%29.98 "Hg10 mi
1:50 AM52 °FClear.5 mph62%30.01 "Hg10 mi
1:20 AM52 °FClear.3 mph67%30.01 "Hg10 mi
12:50 AM52 °FClear.No wind72%30.01 "Hg10 mi
12:20 AM50 °FClear.2 mph82%30.01 "Hg10 mi
11:50 PM
Thu, May 5
50 °FClear.3 mph76%30.01 "Hg10 mi
11:20 PM50 °FClear.3 mph82%30.01 "Hg10 mi
10:50 PM52 °FClear.2 mph72%30.01 "Hg10 mi
10:20 PM52 °FClear.3 mph77%30.01 "Hg10 mi
9:50 PM54 °FClear.6 mph72%30.01 "Hg10 mi
9:20 PM55 °FSunny.3 mph72%30.01 "Hg10 mi
8:50 PM57 °FPassing clouds.5 mph67%30.01 "HgN/A
8:20 PM59 °FPassing clouds.7 mph63%30.01 "HgN/A
7:50 PM63 °FMild.3 mph49%30.01 "HgN/A
7:20 PM64 °FSunny.5 mph46%30.01 "Hg10 mi
6:50 PM64 °FSunny.6 mph43%30.01 "Hg10 mi
6:20 PM66 °FPassing clouds.8 mph40%30.01 "HgN/A
5:50 PM66 °FSunny.7 mph40%30.01 "Hg10 mi
5:20 PM66 °FSunny.9 mph40%30.04 "Hg10 mi
4:50 PM66 °FPassing clouds.9 mph40%30.04 "HgN/A
4:20 PM66 °FPassing clouds.10 mph40%30.04 "HgN/A
3:50 PM68 °FSunny.12 mph38%30.04 "Hg10 mi
3:20 PM66 °FPassing clouds.10 mph40%30.04 "HgN/A
2:50 PM68 °FPassing clouds.13 mph38%30.04 "HgN/A
2:20 PM66 °FPassing clouds.14 mph40%30.07 "HgN/A
1:50 PM66 °FPassing clouds.13 mph43%30.07 "HgN/A
1:20 PM64 °FPassing clouds.9 mph46%30.07 "HgN/A
12:50 PM64 °FPassing clouds.12 mph46%30.09 "HgN/A
12:20 PM63 °FPassing clouds.12 mph49%30.09 "HgN/A
Weather by CustomWeather, © 2016

See weather overviewHow to use our weather pages